Location: Newark
(11.2914°S, 14.4718°E)
Time: 20:07:47
(UTC+00:00)

A-11 Canister half - All Passes

Search period start: 14 October 2019 00:00
Search period end: 24 October 2019 00:00
Orbit: 1514 x 1686 km, 47.2° (Epoch: 13 October)

Date Brightness Start Highest point End Pass type
(mag) Time Alt. Az. Time Alt. Az. Time Alt. Az.
14 Oct - 10:36:00 10° N 10:43:14 26° NE 10:50:33 10° ESE daylight
14 Oct - 12:38:32 10° NW 12:47:42 65° SW 12:57:13 10° SSE daylight
14 Oct - 14:49:11 10° WSW 14:53:55 14° SSW 14:58:45 10° S daylight
14 Oct - 21:14:07 10° SSW 21:23:12 36° SE 21:32:12 10° ENE visible
14 Oct - 23:18:26 10° SW 23:28:20 57° NW 23:38:06 10° NNE night (unlit)
15 Oct - 10:13:29 10° N 10:20:20 23° NE 10:27:15 10° E daylight
15 Oct - 12:15:35 10° NW 12:24:47 71° SW 12:34:19 10° SE daylight
15 Oct - 14:25:36 10° WSW 14:30:50 16° SW 14:36:11 10° S daylight
15 Oct - 20:51:19 10° SSW 21:00:11 33° SE 21:09:00 10° ENE visible
15 Oct - 22:55:24 10° SW 23:05:24 62° NW 23:15:17 10° NNE night (unlit)
16 Oct - 09:51:01 10° N 09:57:27 21° NE 10:03:54 10° E daylight
16 Oct - 11:52:38 10° NW 12:01:52 76° SW 12:11:24 10° SE daylight
16 Oct - 14:02:05 10° WSW 14:07:45 17° SW 14:13:34 10° S daylight
16 Oct - 20:28:33 10° SSW 20:37:09 31° SE 20:45:44 10° E visible
16 Oct - 22:32:22 10° SW 22:42:27 67° NW 22:52:27 10° NNE visible
17 Oct - 00:45:01 10° WNW 00:47:12 11° NW 00:49:23 10° NW night (unlit)
17 Oct - 09:28:37 10° NNE 09:34:32 19° NE 09:40:29 10° E daylight
17 Oct - 11:29:43 10° NW 11:38:58 82° SW 11:48:30 10° SE daylight
17 Oct - 13:38:39 10° WSW 13:44:42 19° SW 13:50:55 10° S daylight
17 Oct - 20:05:47 10° SSW 20:14:08 28° SE 20:22:27 10° E visible
17 Oct - 22:09:22 10° SW 22:19:31 72° NW 22:29:35 10° NNE visible
18 Oct - 00:20:27 10° WNW 00:24:14 13° NW 00:28:02 10° NNW night (unlit)
18 Oct - 09:06:18 10° NNE 09:11:38 17° NE 09:16:58 10° E daylight
18 Oct - 11:06:49 10° NW 11:16:04 88° SW 11:25:35 10° SE daylight
18 Oct - 13:15:15 10° W 13:21:39 20° SW 13:28:15 10° S daylight
18 Oct - 19:43:02 10° SSW 19:51:05 26° SE 19:59:08 10° E visible
18 Oct - 21:46:24 10° SW 21:56:35 78° NW 22:06:42 10° NE visible
18 Oct - 23:56:27 10° W 00:01:17 14° NW 00:06:06 10° NNW night (unlit)
19 Oct - 08:44:06 10° NNE 08:48:43 15° NE 08:53:21 10° E daylight
19 Oct - 10:43:56 10° NW 10:53:10 85° NE 11:02:38 10° SE daylight
19 Oct - 12:51:54 10° W 12:58:38 22° SW 13:05:33 10° S daylight
19 Oct - 19:20:18 10° S 19:28:02 24° SE 19:35:47 10° E visible
19 Oct - 21:23:25 10° SW 21:33:38 84° NW 21:43:47 10° NE visible
19 Oct - 23:32:42 10° W 23:38:19 16° NW 23:43:56 10° NNW night (unlit)
20 Oct - 08:22:05 10° NNE 08:25:48 13° NE 08:29:32 10° ENE daylight
20 Oct - 10:21:05 10° NW 10:30:17 79° NE 10:39:42 10° SE daylight
20 Oct - 12:28:35 10° W 12:35:37 24° SW 12:42:50 10° S daylight
20 Oct - 18:57:36 10° S 19:04:59 22° SE 19:12:22 10° E visible
20 Oct - 21:00:28 10° SW 21:10:41 90° NW 21:20:52 10° NE visible
20 Oct - 23:09:05 10° W 23:15:22 18° NW 23:21:39 10° NNW night (unlit)
21 Oct - 08:00:28 10° NE 08:02:53 11° NE 08:05:18 10° ENE daylight
21 Oct - 09:58:13 10° NNW 10:07:23 73° NE 10:16:44 10° SE daylight
21 Oct - 12:05:18 10° W 12:12:36 26° SW 12:20:06 10° SSE daylight
21 Oct - 18:34:55 10° S 18:41:55 21° SE 18:48:56 10° E visible
21 Oct - 20:37:32 10° SW 20:47:44 85° SE 20:57:55 10° NE visible
21 Oct - 22:45:35 10° W 22:52:25 20° NW 22:59:15 10° N night (unlit)
22 Oct - 09:35:24 10° NNW 09:44:30 67° NE 09:53:45 10° SE daylight
22 Oct - 11:42:04 10° W 11:49:37 28° SW 11:57:21 10° SSE daylight
22 Oct - 18:12:17 10° S 18:18:51 19° SE 18:25:26 10° ESE visible
22 Oct - 20:14:37 10° SW 20:24:47 79° SE 20:34:58 10° NE visible
22 Oct - 22:22:10 10° W 22:29:28 23° NW 22:36:48 10° N visible
23 Oct - 09:12:35 10° NNW 09:21:38 62° NE 09:30:47 10° SE daylight
23 Oct - 11:18:51 10° W 11:26:38 30° SW 11:34:37 10° SSE daylight
23 Oct - 17:49:40 10° S 17:55:46 17° SE 18:01:53 10° ESE visible
23 Oct - 19:51:42 10° SW 20:01:49 73° SE 20:11:58 10° NE visible
23 Oct - 21:58:49 10° WSW 22:06:32 25° NW 22:14:16 10° N visible
